Wind_Speed
18 17 15 16 12 10 12 8 7 8 10 11 12 13 15 15 16 15 14 15 12 8 8 9 10 11 11 12 12 13 14 13 12 13 13 15 15 16 16 16 17 19 20 22 24 29 34 43 47
23 22 19 15 10 10 10 6 7 9 10 11 13 15 16 15 13 14 12 7 9 8 8 8 9 9 9 10 12 14 15 14 14 13 14 14 16 17 18 19 18 17 18 19 19 20 21 24 34
11 13 11 9 11 7 6 6 8 10 11 13 14 15 12 11 10 7 10 9 8 8 8 9 9 10 11 12 14 15 15 15 15 16 16 16 16 16 17 18 18 19 20 20 19 18 18 19 18
7 9 9 9 8 7 7 9 10 12 13 13 12 7 7 5 10 9 8 9 8 9 9 10 11 12 13 14 14 14 15 16 16 16 16 16 15 15 14 15 15 16 18 20 22 22 20 18 16
7 7 6 7 6 8 10 12 13 13 11 8 5 3 10 10 9 8 8 8 9 10 10 11 12 13 14 14 14 14 13 13 14 15 16 17 16 14 13 13 12 13 15 16 18 19 21 22 20
3 6 7 4 8 11 12 12 11 5 2 2 8 12 11 10 9 8 8 10 10 10 11 12 13 14 15 15 15 14 14 14 14 15 15 16 16 17 16 15 13 12 13 14 16 16 16 18 18
3 2 2 2 1 3 3 1 3 3 6 12 14 12 11 10 10 10 11 12 12 12 13 13 13 14 15 15 15 16 17 17 17 16 15 15 15 14 15 15 15 13 12 12 12 13 14 15 13
9 8 8 8 7 7 6 5 6 10 13 13 12 11 11 12 12 12 13 13 14 14 13 13 14 14 14 15 15 16 17 18 20 20 18 16 15 14 14 14 14 14 12 12 12 11 10 12 11
9 9 8 8 8 7 8 9 12 14 13 12 11 11 11 12 12 13 14 15 15 15 15 14 15 14 14 14 14 15 16 18 19 20 21 20 17 16 15 15 13 13 12 12 11 10 9 9 7
11 10 12 11 11 10 10 12 13 11 11 10 10 9 10 11 13 14 14 15 15 15 16 16 16 16 16 15 13 14 15 17 18 19 20 21 19 17 15 15 15 13 12 12 11 9 9 9 6
13 14 14 13 12 11 12 12 11 9 10 9 7 7 8 10 12 13 13 13 13 14 15 16 17 18 18 17 14 13 14 15 16 17 18 18 20 19 18 17 16 16 14 14 13 12 12 10 8
15 15 15 13 12 11 10 10 8 7 6 5 5 5 7 9 11 12 12 12 12 13 14 15 16 17 18 19 18 16 15 15 15 15 16 17 17 19 19 18 17 17 16 14 13 13 12 11 11
15 15 14 13 12 10 7 5 4 3 2 1 2 5 6 7 9 10 11 12 13 14 16 17 17 18 18 18 19 18 16 14 14 15 15 16 18 18 18 19 20 19 18 17 15 15 14 13 13
18 16 13 11 10 8 6 3 2 2 2 2 4 5 7 9 9 10 11 12 13 15 17 18 18 18 18 19 18 18 17 15 14 15 16 17 18 18 19 19 19 19 19 18 18 17 16 16 16
12 13 14 14 9 6 5 3 2 3 4 5 5 5 7 8 10 11 12 12 13 15 17 18 18 18 18 18 18 18 16 16 15 16 17 17 17 17 17 18 18 19 19 19 19 19 19 19 19
7 8 8 10 12 12 8 5 4 5 5 5 6 7 9 9 10 11 13 13 15 16 16 17 18 18 18 18 18 17 18 17 16 16 16 17 17 18 18 17 17 17 17 18 19 18 19 19 19
6 6 6 7 7 8 9 7 7 7 7 8 8 8 9 10 11 12 13 15 15 16 16 17 17 17 18 19 19 19 18 18 20 20 20 19 17 17 17 17 17 17 18 18 18 19 19 19 19
4 4 5 5 5 5 6 5 6 6 7 7 8 9 10 9 11 12 13 14 15 17 18 17 18 18 18 20 20 20 21 21 20 20 20 21 21 20 19 17 18 19 19 18 18 18 18 18 18
2 2 3 3 4 5 6 5 7 9 9 9 9 9 10 11 13 13 15 17 18 19 20 21 20 20 20 21 21 22 23 24 24 23 23 22 22 22 22 21 19 19 20 20 20 19 20 19 19
3 2 2 2 3 6 6 8 8 9 10 11 13 12 13 14 15 16 18 20 21 22 23 24 24 25 25 25 26 25 26 27 27 29 29 27 27 27 26 25 24 23 23 22 22 22 21 21 22
8 8 7 6 6 7 9 9 10 10 11 12 13 14 15 17 18 19 21 23 24 26 27 28 29 30 30 30 29 30 30 30 30 31 32 32 32 31 30 30 30 28 27 26 26 26 26 25 24
9 9 8 8 8 8 9 11 11 11 11 11 12 13 13 15 16 17 20 22 23 25 27 29 30 31 32 33 34 33 34 33 34 33 34 34 34 34 35 34 32 32 31 31 30 30 29 29 28
7 7 7 8 8 10 10 12 13 12 12 13 13 14 14 15 15 16 18 22 23 24 27 29 29 31 32 32 33 34 32 32 32 34 36 36 36 36 36 37 37 36 34 34 34 33 33 32 32
6 6 7 8 9 9 11 13 14 14 14 13 15 15 16 17 18 18 19 20 23 25 26 28 28 28 30 30 29 31 31 29 30 31 33 34 35 36 38 38 37 37 37 35 35 35 35 34 35
5 5 5 7 9 11 12 14 16 15 17 18 17 18 19 19 21 22 23 26 26 26 27 29 30 31 30 30 30 29 30 32 31 32 30 30 31 33 36 37 36 36 37 37 37 37 36 36 35
2 2 5 7 10 12 14 15 17 19 19 19 21 21 20 22 24 26 27 29 32 31 30 31 31 32 34 32 32 31 33 32 32 33 32 30 31 31 32 33 35 36 37 36 36 37 37 37 36
1 1 5 8 11 14 16 18 21 21 20 21 22 21 21 23 23 25 28 31 32 31 30 32 33 34 35 35 35 35 35 36 36 33 32 32 31 32 31 30 32 33 35 37 37 37 38 38 37
3 5 6 8 9 12 17 19 22 23 24 23 24 25 24 25 27 28 27 27 29 30 32 33 34 34 36 35 35 35 36 37 37 34 33 32 31 31 32 32 32 33 35 37 38 37 39 39 39
7 9 11 14 16 17 17 21 24 26 27 29 30 27 27 31 32 34 33 30 29 33 33 33 33 35 37 36 35 35 34 35 37 35 35 35 32 32 33 33 33 34 35 36 35 36 37 39 40
12 13 16 17 17 20 22 24 25 27 29 29 29 32 34 33 35 36 36 37 34 29 30 30 32 34 36 37 36 34 35 36 35 36 37 37 37 33 33 34 34 34 34 35 34 34 36 37 38
Wind_Direction
251 260 274 288 297 293 294 297 304 304 306 309 311 314 314 319 324 327 332 335 339 9 33 28 22 9 3 2 4 9 10 10 11 7 5 2 0 357 351 346 331 313 304 301 294 285 272 268 264
247 254 267 279 275 256 270 273 294 297 301 305 306 311 319 327 332 336 343 26 53 51 37 25 9 6 9 9 13 16 14 8 12 12 9 8 6 4 10 14 8 354 337 324 322 319 307 290 272
226 233 234 246 242 261 269 292 291 294 300 305 312 317 327 335 341 25 70 65 45 41 24 4 0 8 10 18 18 17 13 7 7 9 8 7 9 7 4 8 8 13 11 4 351 338 331 324 312
183 193 204 204 242 249 266 278 282 291 297 306 318 332 342 38 87 73 57 48 35 13 8 5 11 14 14 17 16 14 9 5 4 5 6 4 3 3 0 2 5 3 4 6 9 10 5 354 342
144 167 192 218 225 254 269 272 280 290 300 315 340 22 95 92 75 58 44 31 21 12 11 8 9 11 13 13 7 6 8 7 4 6 5 4 2 0 357 358 359 359 0 0 5 7 10 13 11
186 207 221 226 256 263 271 277 285 293 349 24 98 105 97 84 68 51 42 34 28 18 14 12 11 10 10 10 9 10 11 16 12 7 9 6 4 2 356 353 351 353 357 356 355 0 4 7 9
125 157 178 189 186 247 239 178 108 79 101 108 112 103 84 73 66 55 45 38 30 26 23 21 19 20 22 22 22 20 18 20 21 17 12 9 6 4 359 351 349 344 347 351 352 354 356 358 5
89 92 97 93 100 102 101 88 98 107 111 110 103 94 86 75 65 54 45 38 32 29 28 28 28 30 28 24 22 24 24 25 23 22 18 13 9 7 4 358 354 354 349 348 346 348 344 350 357
77 78 85 82 83 82 86 98 111 113 113 111 105 95 83 68 55 47 39 32 29 29 28 28 27 26 24 23 22 21 23 25 24 22 20 16 11 9 6 1 357 357 354 354 349 347 338 342 348
73 73 77 78 78 83 96 111 116 119 119 114 103 89 75 57 44 35 30 27 27 28 28 26 25 22 18 17 17 17 17 18 19 19 18 17 15 13 8 3 359 358 355 352 348 344 337 330 331
74 73 75 78 84 95 106 119 121 119 114 111 103 83 59 40 27 19 18 17 17 20 19 19 19 18 13 9 7 7 7 9 12 14 14 15 15 13 12 8 4 1 358 354 347 338 333 322 310
77 77 78 84 87 95 109 129 134 119 132 114 83 47 25 13 6 0 357 1 3 4 3 1 1 2 3 3 360 357 359 5 5 6 7 9 10 12 13 12 9 6 0 354 346 338 330 321 308
74 75 74 74 78 88 105 129 146 176 189 93 24 10 2 359 357 353 347 349 351 353 357 357 355 355 356 355 355 352 349 356 358 359 359 3 7 6 9 13 14 12 6 0 352 346 341 330 318
72 69 65 72 75 81 89 98 126 244 293 346 355 342 343 347 352 351 349 347 348 351 353 353 351 348 345 347 348 347 344 344 349 353 354 359 1 3 3 7 11 12 10 9 5 356 347 343 335
77 72 69 65 68 78 79 76 39 338 358 1 346 334 334 338 343 345 349 345 344 344 345 345 348 348 345 344 342 342 341 338 340 343 347 351 355 356 358 1 6 8 8 8 6 2 356 351 345
87 82 76 66 62 63 67 59 40 19 14 1 345 334 329 332 336 337 340 336 334 338 337 341 346 347 348 347 345 342 338 334 333 334 338 342 345 345 344 350 354 358 1 3 3 0 356 353 349
83 78 68 62 56 55 58 58 51 33 29 20 3 346 335 335 327 331 331 331 331 329 333 336 335 336 340 343 347 346 342 338 333 333 332 333 334 332 333 336 338 343 347 350 351 350 351 352 349
77 66 57 48 31 27 22 16 5 359 356 0 3 2 357 344 325 331 327 320 322 323 325 325 325 327 333 335 336 338 338 338 334 330 329 328 327 326 323 324 327 331 336 340 343 343 342 341 341
66 37 29 14 350 350 344 351 335 335 334 334 331 329 327 322 319 325 317 315 316 315 313 314 314 315 320 319 320 324 325 326 329 327 325 322 320 318 318 316 315 318 322 326 329 331 334 335 334
84 63 47 1 337 340 344 355 341 331 337 327 324 323 317 311 311 308 305 306 305 306 305 305 307 308 309 309 311 312 313 315 316 319 319 321 319 317 314 311 310 309 311 314 316 319 322 324 326
76 65 57 47 39 32 21 13 12 4 353 345 335 329 323 318 313 310 305 304 305 304 303 303 304 303 303 303 304 303 304 305 307 309 309 310 313 314 314 314 311 308 306 306 309 311 314 317 319
78 74 66 54 44 35 31 44 21 16 6 356 352 345 332 324 318 315 311 309 308 307 305 304 304 303 302 302 301 301 302 301 300 299 297 298 300 303 306 307 308 308 306 304 302 303 305 308 310
68 65 60 46 40 33 27 27 23 25 11 355 349 343 338 333 330 324 314 310 309 307 309 308 305 306 307 306 305 307 307 306 304 300 297 295 295 294 296 297 301 302 303 303 302 301 299 300 301
67 72 51 34 31 31 30 25 23 22 17 10 2 349 342 336 333 330 318 314 316 315 313 310 309 308 308 308 308 310 313 314 311 307 302 298 296 294 292 291 293 295 296 298 298 298 298 298 298
76 69 43 24 16 16 19 16 19 15 10 13 7 356 346 336 331 327 322 319 319 317 316 316 310 305 302 305 307 309 312 319 317 313 307 302 300 296 294 295 294 293 294 295 296 295 296 296 296
86 44 24 12 5 6 5 6 6 6 11 6 358 355 349 341 335 328 322 317 318 323 320 317 313 312 306 302 303 306 310 313 317 314 313 308 305 303 300 300 299 294 293 292 291 292 293 294 295
351 335 354 356 1 355 353 359 357 6 3 357 353 354 355 350 340 334 326 322 326 327 324 319 317 315 314 310 300 300 304 309 314 312 309 308 310 306 303 299 298 296 293 292 291 291 292 293 294
331 321 333 344 349 350 346 348 347 354 357 355 349 349 350 350 348 345 339 333 329 328 324 319 317 313 312 313 309 304 304 308 312 309 304 303 306 305 305 303 300 300 300 298 297 294 293 294 294
313 315 321 324 326 328 331 328 335 342 343 347 347 346 345 345 345 345 342 334 331 326 322 319 317 314 311 313 312 310 309 312 312 308 305 303 300 302 304 304 303 301 301 302 302 299 297 298 298
293 298 303 310 313 314 321 318 321 328 331 336 340 341 340 342 341 340 341 338 335 330 324 318 314 311 312 314 314 311 311 313 314 311 308 305 299 296 298 299 300 301 302 303 304 304 302 301 300
Height
5885 5886 5888 5888 5892 5888 5886 5887 5887 5887 5888 5886 5886 5886 5886 5885 5884 5885 5882 5880 5879 5879 5878 5878 5878 5877 5875 5874 5872 5871 5869 5868 5867 5865 5862 5860 5858 5856 5853 5850 5848 5845 5844 5843 5842 5841 5842 5842 5842
5883 5885 5886 5887 5889 5884 5885 5887 5887 5887 5887 5886 5885 5885 5885 5883 5882 5882 5881 5880 5880 5880 5880 5879 5879 5878 5877 5875 5873 5871 5869 5868 5867 5865 5863 5861 5858 5855 5852 5849 5847 5844 5842 5841 5839 5837 5836 5835 5835
5880 5882 5885 5886 5885 5886 5885 5886 5887 5886 5886 5885 5885 5884 5883 5883 5882 5881 5881 5882 5882 5882 5881 5881 5880 5878 5876 5874 5872 5870 5869 5868 5866 5863 5861 5859 5857 5855 5852 5849 5847 5845 5843 5840 5839 5836 5834 5832 5831
5879 5881 5883 5883 5882 5884 5884 5885 5886 5885 5885 5884 5884 5884 5883 5882 5883 5883 5883 5884 5884 5883 5883 5882 5881 5879 5877 5874 5872 5871 5869 5867 5864 5862 5860 5858 5856 5854 5853 5850 5848 5845 5842 5840 5838 5835 5834 5831 5829
5880 5881 5882 5883 5883 5883 5884 5884 5884 5884 5884 5884 5884 5884 5884 5884 5885 5885 5886 5886 5885 5885 5884 5883 5881 5879 5877 5875 5874 5872 5869 5867 5865 5862 5859 5857 5855 5853 5852 5850 5848 5845 5843 5841 5838 5836 5833 5831 5830
5879 5880 5881 5880 5881 5881 5882 5883 5883 5883 5884 5884 5884 5885 5886 5887 5887 5888 5888 5887 5887 5887 5885 5883 5882 5880 5878 5876 5875 5873 5871 5868 5865 5862 5859 5857 5854 5851 5849 5847 5846 5845 5843 5840 5838 5836 5834 5833 5830
5879 5879 5879 5879 5880 5880 5881 5882 5882 5883 5884 5885 5886 5888 5889 5889 5889 5890 5889 5889 5888 5887 5886 5884 5883 5881 5879 5877 5876 5874 5872 5870 5866 5863 5860 5857 5854 5852 5849 5847 5845 5844 5843 5841 5838 5836 5834 5833 5831
5880 5881 5880 5880 5881 5882 5882 5883 5884 5885 5887 5888 5889 5890 5891 5892 5892 5891 5891 5890 5889 5888 5887 5886 5884 5882 5881 5879 5877 5875 5873 5870 5868 5864 5861 5858 5855 5852 5850 5848 5846 5844 5842 5840 5839 5836 5835 5834 5833
5882 5883 5882 5883 5883 5884 5884 5885 5887 5888 5889 5890 5892 5893 5893 5893 5893 5893 5893 5892 5891 5889 5888 5887 5885 5884 5882 5880 5878 5876 5874 5871 5868 5865 5862 5859 5856 5853 5850 5848 5846 5844 5842 5840 5839 5837 5835 5834 5833
5885 5885 5884 5885 5885 5886 5887 5889 5890 5892 5892 5893 5894 5895 5895 5895 5895 5895 5895 5894 5892 5891 5889 5888 5887 5885 5883 5881 5878 5876 5874 5871 5868 5866 5863 5860 5857 5854 5851 5848 5846 5844 5842 5839 5838 5836 5834 5834 5833
5887 5887 5887 5887 5888 5889 5891 5892 5893 5894 5895 5895 5895 5896 5897 5897 5897 5896 5895 5894 5893 5892 5890 5888 5887 5885 5883 5882 5879 5877 5874 5871 5869 5866 5864 5861 5858 5854 5851 5848 5846 5843 5841 5839 5837 5836 5834 5833 5832
5890 5890 5890 5890 5891 5892 5894 5895 5895 5896 5896 5897 5898 5899 5899 5899 5898 5897 5896 5895 5894 5892 5891 5889 5887 5885 5883 5881 5879 5877 5874 5871 5869 5867 5864 5861 5858 5855 5852 5849 5846 5843 5841 5839 5838 5836 5834 5832 5831
5893 5892 5892 5893 5894 5895 5896 5896 5897 5896 5897 5899 5900 5901 5900 5899 5898 5897 5896 5895 5894 5893 5891 5889 5887 5885 5883 5880 5878 5876 5874 5871 5869 5866 5864 5861 5858 5855 5851 5848 5845 5843 5841 5838 5837 5835 5833 5831 5830
5896 5895 5895 5896 5897 5897 5898 5898 5898 5897 5899 5901 5902 5901 5900 5899 5899 5897 5897 5896 5894 5893 5891 5889 5886 5884 5882 5880 5877 5875 5873 5871 5868 5865 5863 5860 5857 5854 5851 5848 5846 5843 5841 5838 5835 5833 5831 5829 5827
5899 5900 5899 5898 5899 5899 5899 5900 5899 5898 5901 5902 5901 5900 5900 5899 5898 5897 5896 5895 5894 5893 5891 5888 5886 5884 5881 5879 5876 5874 5872 5869 5867 5865 5862 5860 5857 5854 5851 5848 5845 5842 5840 5838 5835 5832 5830 5826 5825
5901 5901 5901 5901 5900 5900 5901 5900 5900 5900 5901 5901 5901 5900 5899 5899 5898 5897 5896 5895 5893 5892 5889 5888 5886 5883 5881 5878 5876 5873 5871 5869 5866 5863 5861 5859 5856 5854 5851 5848 5845 5842 5839 5837 5834 5832 5829 5826 5823
5901 5901 5901 5901 5901 5902 5902 5901 5901 5900 5901 5901 5901 5900 5899 5899 5897 5897 5896 5894 5893 5890 5889 5888 5885 5882 5880 5878 5876 5873 5870 5868 5865 5863 5860 5857 5855 5852 5850 5847 5844 5841 5838 5835 5832 5830 5827 5824 5821
5901 5902 5902 5902 5903 5902 5902 5902 5901 5901 5901 5901 5901 5900 5899 5898 5897 5896 5894 5892 5891 5889 5888 5885 5884 5882 5880 5878 5875 5872 5870 5867 5864 5861 5858 5856 5854 5851 5848 5845 5842 5840 5837 5834 5830 5827 5825 5822 5819
5901 5902 5902 5903 5902 5902 5902 5903 5902 5901 5901 5901 5900 5899 5898 5897 5896 5895 5893 5891 5890 5888 5885 5884 5881 5879 5878 5875 5873 5871 5868 5864 5862 5859 5856 5853 5850 5848 5846 5843 5840 5838 5835 5832 5829 5826 5822 5819 5815
5902 5902 5903 5903 5902 5902 5902 5902 5902 5901 5900 5900 5898 5898 5896 5895 5894 5893 5891 5889 5887 5885 5883 5880 5878 5876 5874 5871 5869 5867 5864 5862 5859 5856 5853 5851 5848 5845 5842 5840 5837 5834 5832 5828 5825 5822 5819 5816 5812
5903 5903 5902 5902 5902 5903 5902 5902 5901 5900 5899 5898 5897 5896 5894 5893 5891 5890 5888 5885 5883 5881 5879 5876 5874 5871 5869 5866 5864 5861 5859 5857 5855 5852 5849 5846 5843 5841 5838 5835 5832 5829 5827 5824 5821 5818 5815 5811 5808
5904 5904 5903 5903 5903 5903 5902 5903 5901 5900 5899 5897 5896 5894 5892 5890 5888 5887 5884 5882 5880 5877 5874 5871 5869 5866 5863 5860 5858 5856 5853 5851 5848 5845 5842 5839 5837 5834 5831 5829 5826 5823 5821 5818 5815 5812 5810 5806 5803
5905 5904 5904 5903 5903 5903 5902 5901 5900 5899 5898 5897 5895 5893 5890 5888 5886 5884 5882 5878 5876 5873 5870 5867 5864 5861 5857 5854 5852 5848 5846 5843 5840 5837 5835 5832 5829 5827 5824 5821 5819 5816 5814 5811 5808 5805 5802 5800 5797
5905 5905 5904 5903 5903 5903 5901 5900 5900 5898 5897 5895 5893 5891 5889 5887 5884 5882 5879 5876 5874 5870 5866 5862 5859 5857 5853 5850 5847 5843 5840 5837 5834 5830 5828 5825 5822 5819 5815 5813 5811 5809 5806 5803 5801 5798 5795 5792 5789
5905 5905 5905 5904 5903 5902 5900 5900 5900 5899 5897 5895 5893 5891 5888 5886 5882 5879 5876 5872 5869 5867 5863 5859 5855 5851 5848 5845 5842 5839 5835 5832 5828 5824 5821 5817 5814 5811 5808 5806 5804 5800 5798 5796 5793 5790 5787 5784 5781
5906 5905 5905 5904 5902 5901 5900 5900 5900 5898 5896 5895 5892 5890 5887 5883 5880 5876 5872 5868 5865 5863 5859 5855 5851 5847 5843 5840 5837 5833 5830 5826 5822 5817 5814 5810 5807 5804 5801 5798 5795 5792 5789 5786 5784 5781 5778 5775 5772
5905 5905 5905 5903 5902 5900 5899 5899 5898 5896 5894 5892 5889 5886 5883 5880 5877 5873 5869 5865 5862 5858 5854 5849 5846 5842 5838 5834 5831 5827 5824 5820 5816 5812 5808 5804 5800 5797 5794 5790 5787 5783 5780 5777 5774 5772 5769 5766 5763
5903 5903 5903 5902 5902 5900 5897 5896 5894 5892 5891 5889 5886 5883 5880 5877 5874 5870 5866 5862 5858 5853 5849 5844 5841 5836 5832 5828 5824 5821 5818 5813 5810 5806 5802 5797 5794 5790 5786 5783 5779 5776 5772 5769 5767 5764 5760 5758 5754
5901 5900 5900 5899 5898 5896 5895 5892 5889 5887 5885 5883 5881 5879 5876 5872 5869 5865 5861 5858 5854 5849 5844 5839 5835 5830 5826 5822 5818 5814 5811 5807 5803 5800 5795 5792 5787 5783 5779 5775 5772 5768 5764 5760 5758 5755 5752 5749 5746
5898 5897 5896 5896 5895 5892 5890 5889 5885 5884 5882 5880 5877 5873 5868 5866 5863 5860 5856 5851 5848 5844 5839 5834 5828 5824 5819 5815 5811 5808 5804 5801 5796 5793 5789 5784 5782 5775 5770 5767 5763 5760 5757 5753 5750 5747 5744 5740 5736